N6ROE Weather Reports


time (UTC)temp
C
wind
direction
speed
KPH
gust
KPH
rain 1hr
cm
rain 24hr
cm
rain mn
cm
humidity
%
barometer
mb
20260510094515 21 186 6.4 8.0 0.00 0.81 0.00 93 1011.2
20260510093516 21 195 4.8 6.4 0.00 0.81 0.00 93 1011.1
20260510092516 21 160 3.2 6.4 0.00 0.81 0.00 93 1011.1
20260510091516 21 123 4.8 8.0 0.00 0.81 0.00 93 1011.0
20260510090516 21 186 3.2 6.4 0.00 0.81 0.00 92 1010.8
20260510085517 21 120 4.8 6.4 0.00 0.81 0.00 92 1010.8
20260510084516 22 225 1.6 3.2 0.00 0.81 0.00 90 1010.7
20260510083537 22 134 1.6 3.2 0.00 0.81 0.00 90 1010.8
20260510082518 22 127 4.8 6.4 0.00 0.81 0.00 89 1010.8
20260510081515 22 129 3.2 6.4 0.00 0.81 0.00 89 1010.8
20260510080516 22 157 3.2 6.4 0.00 0.81 0.00 89 1010.8
20260510075516 22 198 1.6 4.8 0.00 0.81 0.00 88 1010.8
20260510074516 22 192 3.2 4.8 0.00 0.81 0.00 88 1010.8
20260510073516 22 192 1.6 4.8 0.00 0.81 0.00 88 1010.8
20260510072516 22 131 1.6 3.2 0.00 0.81 0.00 88 1010.8
20260510071516 22 147 1.6 4.8 0.00 0.81 0.00 88 1010.8
20260510070516 22 170 3.2 4.8 0.00 0.81 0.00 88 1010.8
20260510065517 22 167 1.6 3.2 0.00 0.81 0.00 87 1010.9
20260510064517 23 191 3.2 4.8 0.00 0.81 0.00 87 1010.8
20260510063517 23 171 3.2 6.4 0.00 0.81 0.00 86 1010.7
20260510062517 23 173 4.8 8.0 0.00 0.81 0.00 85 1010.6
20260510061517 23 154 3.2 6.4 0.00 0.81 0.00 84 1010.7
20260510060518 23 174 3.2 4.8 0.00 0.81 0.00 84 1010.7
20260510055518 23 188 3.2 4.8 0.00 0.81 0.00 83 1010.7
20260510054518 23 190 3.2 6.4 0.00 0.81 0.00 83 1010.7
20260510053559 23 170 3.2 6.4 0.00 0.81 0.00 82 1010.8
20260510052518 24 167 3.2 4.8 0.00 0.81 0.00 81 1010.7
20260510051516 24 148 3.2 6.4 0.00 0.81 0.00 80 1010.7
20260510050518 24 122 3.2 6.4 0.00 0.81 0.00 80 1010.6
20260510045516 25 104 3.2 6.4 0.00 0.81 0.81 79 1010.5
20260510044516 25 126 3.2 6.4 0.00 0.81 0.81 78 1010.4
20260510043516 25 144 1.6 6.4 0.00 0.81 0.81 79 1010.4
20260510042516 25 106 3.2 6.4 0.00 0.81 0.81 78 1010.3
20260510041516 24 107 4.8 9.7 0.00 0.81 0.81 79 1010.2
20260510040517 24 52 1.6 6.4 0.00 0.81 0.81 80 1010.1
20260510035517 25 48 3.2 6.4 0.00 0.81 0.81 80 1010.0
20260510034517 25 46 3.2 6.4 0.00 0.81 0.81 79 1010.0
20260510033517 25 35 3.2 6.4 0.00 0.81 0.81 78 1009.9
20260510032517 25 38 6.4 8.0 0.00 0.81 0.81 78 1009.8
20260510031517 25 29 4.8 9.7 0.00 0.81 0.81 78 1009.7
20260510030538 25 38 8.0 9.7 0.00 0.81 0.81 77 1009.6
20260510025519 25 38 4.8 9.7 0.00 0.81 0.81 77 1009.5
20260510024538 25 41 3.2 8.0 0.00 0.81 0.81 77 1009.3
20260510023537 25 54 3.2 6.4 0.00 0.81 0.81 77 1009.3
20260510022536 25 62 3.2 6.4 0.00 0.81 0.81 75 1009.1
20260510021515 25 57 3.2 4.8 0.00 0.81 0.81 77 1009.1
20260510020516 25 46 3.2 6.4 0.00 0.81 0.81 79 1009.1
20260510015516 25 51 3.2 6.4 0.00 0.81 0.81 80 1009.0
20260510014516 25 52 3.2 6.4 0.00 0.81 0.81 80 1009.0
20260510013516 25 56 3.2 6.4 0.00 0.81 0.81 80 1008.8
20260510012516 25 65 3.2 6.4 0.00 0.81 0.81 79 1008.7
20260510011518 25 77 4.8 6.4 0.00 0.81 0.81 77 1008.6
20260510010517 25 74 3.2 6.4 0.00 0.81 0.81 74 1008.4
20260510005517 25 71 4.8 6.4 0.00 0.81 0.81 72 1008.3
20260510004517 25 61 3.2 6.4 0.00 0.81 0.81 72 1008.2
20260510003517 25 48 3.2 8.0 0.00 0.81 0.81 72 1008.1
20260510002517 25 49 3.2 6.4 0.00 0.81 0.81 72 1008.0
20260510001517 25 66 3.2 6.4 0.00 0.81 0.81 72 1008.1
20260510000518 25 61 4.8 11.3 0.00 0.81 0.81 73 1007.9
20260509235518 26 68 4.8 11.3 0.00 0.81 0.81 69 1007.7
20260509234515 25 69 3.2 8.0 0.00 0.81 0.81 66 1007.6
20260509233515 24 57 3.2 8.0 0.00 0.81 0.81 68 1007.7
20260509232515 23 77 4.8 9.7 0.74 0.81 0.81 75 1007.7
20260509231515 23 55 4.8 12.9 0.81 0.81 0.81 81 1007.7
20260509230516 23 58 3.2 4.8 0.81 0.81 0.81 75 1007.6
20260509225516 23 283 6.4 12.9 0.81 0.81 0.81 74 1007.3
20260509224516 23 170 6.4 14.5 0.81 0.81 0.81 68 1007.5
20260509222517 29 70 16.1 40.2 0.08 0.08 0.08 59 1008.0
20260509221517 32 61 8.0 19.3 0.00 0.00 0.00 47 1007.9
20260509220517 32 190 6.4 11.3 0.00 0.00 0.00 46 1007.3
20260509215517 32 186 9.7 14.5 0.00 0.00 0.00 45 1007.3
20260509214517 32 196 9.7 20.9 0.00 0.00 0.00 46 1007.4
20260509213517 32 182 4.8 12.9 0.00 0.00 0.00 47 1007.5
20260509212517 31 192 4.8 12.9 0.00 0.00 0.00 49 1007.6
20260509211538 31 237 6.4 16.1 0.00 0.00 0.00 49 1007.6
20260509210540 31 211 9.7 14.5 0.00 0.00 0.00 50 1007.7
20260509205518 31 223 11.3 17.7 0.00 0.00 0.00 51 1007.9
20260509204518 31 216 8.0 16.1 0.00 0.00 0.00 52 1008.0
20260509203515 31 220 4.8 16.1 0.00 0.00 0.00 53 1008.3
20260509202516 31 196 9.7 19.3 0.00 0.00 0.00 53 1008.4
20260509201537 31 217 9.7 14.5 0.00 0.00 0.00 52 1008.4
20260509200516 31 213 9.7 16.1 0.00 0.00 0.00 53 1008.4
20260509195516 31 222 6.4 16.1 0.00 0.00 0.00 53 1008.6
20260509194536 31 235 4.8 9.7 0.00 0.00 0.00 51 1008.8
20260509193516 30 259 4.8 12.9 0.00 0.00 0.00 54 1009.0
20260509192517 30 252 8.0 12.9 0.00 0.00 0.00 57 1009.3
20260509191516 30 222 6.4 12.9 0.00 0.00 0.00 59 1009.5
20260509190517 30 223 6.4 12.9 0.00 0.00 0.00 60 1009.5
20260509185517 30 231 8.0 11.3 0.00 0.00 0.00 60 1009.6
20260509184517 29 260 8.0 16.1 0.00 0.00 0.00 62 1009.5
20260509183519 29 208 4.8 11.3 0.00 0.00 0.00 64 1009.6
20260509182558 28 238 8.0 17.7 0.00 0.00 0.00 65 1009.8
20260509181518 28 219 9.7 16.1 0.00 0.00 0.00 67 1009.9
20260509180518 28 201 8.0 16.1 0.00 0.00 0.00 68 1009.9
20260509175558 28 203 4.8 12.9 0.00 0.00 0.00 69 1010.2
20260509174518 29 216 4.8 11.3 0.00 0.00 0.00 66 1010.3
20260509173515 28 237 3.2 8.0 0.00 0.00 0.00 69 1010.3
20260509172515 28 268 6.4 11.3 0.00 0.00 0.00 70 1010.4
20260509171515 27 254 1.6 6.4 0.00 0.03 0.00 74 1010.4
20260509170516 27 233 4.8 9.7 0.00 0.03 0.00 76 1010.5
20260509165516 26 244 3.2 4.8 0.00 0.03 0.00 78 1010.6
20260509164536 26 360 3.2 9.7 0.00 0.03 0.00 81 1010.7
20260509163516 26 342 3.2 9.7 0.00 0.03 0.00 81 1010.7
20260509162557 25 245 4.8 11.3 0.00 0.03 0.00 83 1010.4
20260509161517 25 217 6.4 11.3 0.00 0.03 0.00 85 1010.4
20260509160517 23 243 8.0 14.5 0.00 0.03 0.00 96 1010.3
20260509155517 23 238 8.0 16.1 0.00 0.03 0.00 98 1010.4
20260509154517 22 239 11.3 19.3 0.00 0.03 0.00 99 1010.3
20260509153517 22 230 9.7 14.5 0.00 0.03 0.00 100 1010.5
20260509152517 22 260 4.8 8.0 0.00 0.03 0.00 100 1011.0
20260509151519 22 230 3.2 6.4 0.00 0.00 0.00 100 1011.3
20260509150518 22 149 1.6 4.8 0.00 0.00 0.00 100 1011.2
20260509145518 22 223 3.2 4.8 0.00 0.00 0.00 100 1011.3
20260509144518 22 81 0.0 1.6 0.00 0.00 0.00 99 1011.4
20260509143515 22 193 1.6 3.2 0.00 0.00 0.00 100 1011.4
20260509142517 22 118 1.6 3.2 0.00 0.00 0.00 100 1011.4
20260509141516 22 58 0.0 1.6 0.00 0.00 0.00 100 1011.1
20260509140516 22 116 3.2 6.4 0.00 0.00 0.00 100 1010.8
20260509135516 22 36 4.8 9.7 0.00 0.00 0.00 100 1010.4
20260509134516 22 30 4.8 11.3 0.00 0.00 0.00 100 1010.3
20260509133516 22 39 3.2 6.4 0.00 0.00 0.00 100 1010.4
20260509132516 22 35 1.6 4.8 0.00 0.00 0.00 100 1010.3
20260509131517 22 113 3.2 4.8 0.00 0.00 0.00 100 1010.2
20260509130517 22 148 1.6 4.8 0.00 0.00 0.00 100 1010.2
20260509125517 22 101 1.6 3.2 0.00 0.00 0.00 100 1010.4
20260509124517 22 114 1.6 4.8 0.00 0.00 0.00 100 1010.5
20260509123517 22 124 3.2 6.4 0.00 0.00 0.00 100 1010.4
20260509122518 22 98 3.2 6.4 0.00 0.00 0.00 100 1010.6
20260509121538 22 82 4.8 8.0 0.00 0.00 0.00 100 1010.6
20260509120518 22 63 3.2 8.0 0.00 0.00 0.00 100 1010.7
20260509115515 22 20 3.2 11.3 0.00 0.00 0.00 100 1011.0
20260509114516 22 10 6.4 14.5 0.00 0.00 0.00 100 1010.8
20260509113515 22 9 4.8 11.3 0.00 0.00 0.00 100 1010.6
20260509112515 22 4 8.0 11.3 0.00 0.00 0.00 100 1010.3
20260509111516 22 23 3.2 6.4 0.00 0.00 0.00 99 1009.9
20260509110517 22 70 1.6 4.8 0.00 0.00 0.00 99 1009.8
20260509105516 22 94 1.6 4.8 0.00 0.00 0.00 99 1009.9
20260509104516 22 3 4.8 8.0 0.00 0.00 0.00 99 1009.8
20260509103536 22 21 4.8 8.0 0.00 0.00 0.00 99 1010.0
20260509102517 22 32 3.2 6.4 0.00 0.00 0.00 99 1010.2
20260509101517 22 66 3.2 6.4 0.00 0.00 0.00 99 1010.0
20260509100517 22 68 3.2 6.4 0.00 0.00 0.00 99 1009.9
20260509095537 22 32 4.8 8.0 0.00 0.00 0.00 99 1009.8